Regional Weather Roundup
Issued by NWS

Home | Current Version | Previous Version | Text Only | Print | Product List | Glossary Off
Versions: 1 2 3 4 5 6 7 8 9 10 11 12 13 14 15 16 17 18 19 20 21 22 23 24 25 26 27 28 29 30 31 32 33 34 35 36 37 38 39 40 41 42 43 44 45 46 47 48 49 50

000
ASUS45 KABQ 280901
RWRNM
NEW MEXICO REGIONAL WEATHER ROUNDUP
NATIONAL WEATHER SERVICE ALBUQUERQUE NM
300 AM MDT WED JUN 28 2017

NOTE: "FAIR" MEANS FEW OR NO CLOUDS BELOW 12,000 FEET AGL WITH NO
       SIGNIFICANT WEATHER OR OBSTRUCTIONS TO VISION.

      THIS PRODUCT IS RELEASED AS TWO VERSIONS.  ONE VERSION NEAR
      THE TOP OF THE HOUR CONTAINING PRELIMINARY DATA FROM ALBUQUERQUE
      AND OTHER STATIONS.  A FINAL VERSION WITH ADDITIONAL DATA IS
      ISSUED ABOUT 10 MINUTES AFTER THE HOUR.

NMZ501-503-504-510>518-281000-
NORTHWEST PLATEAU/NORTHCENTRAL MOUNTAINS

CITY           SKY/WX    TMP DP  RH WIND       PRES   REMARKS
FARMINGTON     FAIR      52  12  20 NE7       29.96R
LOS ALAMOS     FAIR      70  17  13 W23G31    30.11S
SANTA FE       FAIR      59  41  51 SW3       30.07F
TAOS           FAIR      54  30  40 E5        30.13R
ANGEL FIRE     FAIR      43  37  79 CALM      30.22S

$$
NMZ402-403-502-505>509-281000-
WESTCENTRAL MOUNTAINS/SOUTHWEST MOUNTAINS

CITY           SKY/WX    TMP DP  RH WIND       PRES   REMARKS
GALLUP         FAIR      61  18  18 SE7       30.11S
GRANTS         FAIR      59  16  18 CALM      30.12F
SILVER CITY    FAIR      62  33  33 N5        30.07F

$$
NMZ407-409-411-412-281000-
SOUTHERN DESERTS

CITY           SKY/WX    TMP DP  RH WIND       PRES   REMARKS
DEMING         FAIR      76  43  30 W13       29.98F
LAS CRUCES     FAIR      73  50  44 SW7       29.99S
HOLLOMAN AFB   FAIR      77  48  36 E7        29.97F
ALAMOGORDO     FAIR      73  45  35 N6        29.97F
T OR C         FAIR      65  49  56 VRB3      29.99F

$$
NMZ519>523-281000-
CENTRAL VALLEYS/CENTRAL HIGHLANDS

CITY           SKY/WX    TMP DP  RH WIND       PRES   REMARKS
ALBUQUERQUE    FAIR      73  35  25 S14       30.02F
DOUBLE EAGLE   FAIR      51  40  67 W5        30.06R
MORIARTY ARPT  FAIR      63  44  49 NE6       30.08S
CLINES CORNERS FAIR      59  40  49 W16       30.13S
BELEN          FAIR      67  24  19 S7        30.01S
SOCORRO        FAIR      60  52  75 CALM      30.00F

$$
NMZ524>526-539-540-281000-
SOUTHCENTRAL MOUNTAINS

CITY           SKY/WX    TMP DP  RH WIND       PRES   REMARKS
RUIDOSO        FAIR      64  41  42 NW3       30.17S

$$
NMZ527>531-281000-
NORTHEAST HIGHLANDS/NORTHEAST PLAINS

CITY           SKY/WX    TMP DP  RH WIND       PRES   REMARKS
LAS VEGAS      FAIR      58  42  55 S15       30.08S
RATON          FAIR      52  46  80 E5        30.01R
CLAYTON        FAIR      66  50  56 SW14      29.90R

$$
NMZ532>537-281000-
EASTCENTRAL PLAINS

CITY           SKY/WX    TMP DP  RH WIND       PRES   REMARKS
SANTA ROSA     FAIR      71  49  46 SW12      29.96F
TUCUMCARI      FAIR      75  53  46 SW20      29.87F
CANNON AFB     FAIR      71  62  74 S17G25    29.97F
CLOVIS AIRPORT FAIR      69  60  73 S16       29.96F

$$
NMZ028-029-538-281000-
SOUTHEAST PLAINS

CITY           SKY/WX    TMP DP  RH WIND       PRES   REMARKS
ROSWELL        FAIR      74  53  48 S15       29.92F
ARTESIA        FAIR      73  57  56 S12       29.93F
CARLSBAD       FAIR      73  61  65 S7        29.92F
HOBBS          FAIR      72  61  68 S16       29.97F


$$




USA.gov is the U.S. government's official web portal to all federal, state and local government web resources and services.